TimeEST,TemperatureF,Dew PointF,Humidity,Sea Level PressureIn,VisibilityMPH,Wind Direction,Wind SpeedMPH,Gust SpeedMPH,PrecipitationIn,Events,Conditions,WindDirDegrees,DateUTC
12:13 AM,15.3,12.2,88,29.78,10.0,SW,4.6,-,N/A,,Overcast,230,2014-01-19 05:13:00
12:33 AM,14.7,12.0,89,29.77,10.0,WSW,3.5,-,N/A,,Overcast,250,2014-01-19 05:33:00
12:54 AM,13.8,11.3,90,29.76,10.0,Calm,Calm,-,N/A,,Mostly Cloudy,0,2014-01-19 05:54:00
1:13 AM,14.0,11.7,90,29.76,10.0,Calm,Calm,-,N/A,,Mostly Cloudy,0,2014-01-19 06:13:00
1:34 AM,13.8,11.7,91,29.75,7.0,SSW,3.5,-,N/A,,Overcast,210,2014-01-19 06:34:00
1:53 AM,12.7,10.9,92,29.73,7.0,Calm,Calm,-,N/A,Snow,Light Snow,0,2014-01-19 06:53:00
2:14 AM,12.9,11.3,93,29.72,7.0,SSW,3.5,-,N/A,,Mostly Cloudy,200,2014-01-19 07:14:00
2:33 AM,11.7,10.4,95,29.73,7.0,SSW,3.5,-,N/A,,Scattered Clouds,210,2014-01-19 07:33:00
2:53 AM,9.5,8.4,95,29.73,7.0,Calm,Calm,-,N/A,,Clear,0,2014-01-19 07:53:00
3:14 AM,11.1,9.7,94,29.72,10.0,WSW,4.6,-,N/A,,Clear,240,2014-01-19 08:14:00
3:33 AM,12.2,10.8,94,29.71,10.0,SW,5.8,-,N/A,,Clear,230,2014-01-19 08:33:00
3:54 AM,12.2,10.8,94,29.71,10.0,WSW,5.8,-,N/A,,Clear,240,2014-01-19 08:54:00
4:13 AM,12.0,10.4,93,29.70,10.0,SW,6.9,-,N/A,,Clear,230,2014-01-19 09:13:00
4:34 AM,11.5,10.2,95,29.69,10.0,SW,6.9,-,N/A,,Clear,220,2014-01-19 09:34:00
4:53 AM,11.3,10.2,95,29.69,10.0,SW,6.9,-,N/A,,Clear,230,2014-01-19 09:53:00
5:13 AM,12.0,10.6,94,29.68,10.0,SW,5.8,-,N/A,,Clear,230,2014-01-19 10:13:00
5:34 AM,12.4,10.9,94,29.67,10.0,SW,6.9,-,N/A,,Clear,220,2014-01-19 10:34:00
5:53 AM,12.9,11.3,93,29.67,10.0,SW,9.2,-,N/A,,Clear,230,2014-01-19 10:53:00
6:14 AM,13.1,11.7,94,29.65,10.0,SW,8.1,-,N/A,,Scattered Clouds,220,2014-01-19 11:14:00
6:33 AM,14.7,13.1,93,29.64,10.0,WSW,8.1,-,N/A,,Mostly Cloudy,240,2014-01-19 11:33:00
6:53 AM,15.4,13.3,91,29.63,10.0,SW,6.9,-,N/A,,Overcast,230,2014-01-19 11:53:00
7:14 AM,16.3,14.0,90,29.62,10.0,SW,11.5,-,N/A,,Mostly Cloudy,230,2014-01-19 12:14:00
7:33 AM,16.9,14.9,92,29.61,10.0,SW,10.4,-,N/A,,Scattered Clouds,230,2014-01-19 12:33:00
7:54 AM,18.0,15.8,91,29.61,10.0,WSW,9.2,-,N/A,,Mostly Cloudy,240,2014-01-19 12:54:00
8:13 AM,19.4,16.7,89,29.60,10.0,WSW,13.8,19.6,N/A,,Scattered Clouds,240,2014-01-19 13:13:00
8:34 AM,20.3,17.4,89,29.59,10.0,WSW,12.7,19.6,N/A,,Mostly Cloudy,250,2014-01-19 13:34:00
8:53 AM,21.2,18.1,88,29.57,10.0,WSW,19.6,24.2,N/A,,Overcast,240,2014-01-19 13:53:00
9:14 AM,21.6,18.5,88,29.56,10.0,WSW,12.7,26.5,N/A,,Overcast,240,2014-01-19 14:14:00
9:33 AM,21.9,18.5,87,29.56,10.0,WSW,18.4,27.6,N/A,,Overcast,240,2014-01-19 14:33:00
9:53 AM,22.6,19.0,86,29.55,10.0,WSW,17.3,24.2,N/A,,Overcast,240,2014-01-19 14:53:00
10:14 AM,23.0,19.0,85,29.54,10.0,WSW,20.7,27.6,N/A,,Overcast,240,2014-01-19 15:14:00
10:33 AM,23.7,19.0,82,29.53,10.0,WSW,21.9,26.5,N/A,,Overcast,240,2014-01-19 15:33:00
10:54 AM,24.8,19.4,80,29.52,10.0,WSW,17.3,26.5,N/A,,Overcast,240,2014-01-19 15:54:00
11:13 AM,25.5,19.2,77,29.52,7.0,WSW,18.4,28.8,N/A,,Overcast,250,2014-01-19 16:13:00
11:34 AM,25.7,19.4,77,29.50,7.0,WSW,18.4,34.5,N/A,,Overcast,240,2014-01-19 16:34:00
11:53 AM,26.8,20.1,76,29.49,10.0,WSW,17.3,26.5,N/A,,Overcast,240,2014-01-19 16:53:00
12:13 PM,27.5,20.5,75,29.48,10.0,WSW,19.6,28.8,N/A,,Overcast,240,2014-01-19 17:13:00
12:34 PM,28.2,20.5,73,29.49,7.0,West,23.0,35.7,N/A,,Overcast,260,2014-01-19 17:34:00
12:53 PM,28.0,20.5,73,29.49,10.0,West,18.4,28.8,N/A,,Overcast,260,2014-01-19 17:53:00
1:14 PM,27.0,20.3,76,29.49,7.0,West,25.3,33.4,N/A,,Overcast,260,2014-01-19 18:14:00
1:33 PM,26.6,20.3,77,29.49,10.0,West,24.2,29.9,N/A,,Overcast,270,2014-01-19 18:33:00
1:54 PM,26.4,20.3,78,29.49,10.0,WSW,23.0,33.4,N/A,,Overcast,250,2014-01-19 18:54:00
2:13 PM,25.7,19.6,78,29.49,10.0,West,18.4,27.6,N/A,,Overcast,260,2014-01-19 19:13:00
2:33 PM,25.7,19.8,78,29.50,10.0,WSW,19.6,28.8,N/A,,Overcast,250,2014-01-19 19:33:00
2:54 PM,25.7,19.9,79,29.49,10.0,WSW,13.8,24.2,N/A,,Overcast,250,2014-01-19 19:54:00
3:13 PM,25.9,20.3,79,29.50,10.0,West,15.0,20.7,N/A,,Overcast,260,2014-01-19 20:13:00
3:34 PM,26.2,20.8,80,29.51,10.0,West,13.8,19.6,N/A,,Overcast,260,2014-01-19 20:34:00
3:53 PM,26.6,21.7,82,29.50,10.0,West,13.8,25.3,N/A,,Overcast,260,2014-01-19 20:53:00
4:14 PM,27.1,22.8,84,29.52,10.0,WSW,15.0,26.5,N/A,,Overcast,250,2014-01-19 21:14:00
4:34 PM,27.0,22.3,83,29.52,10.0,WSW,13.8,23.0,N/A,,Overcast,240,2014-01-19 21:34:00
4:53 PM,27.0,22.6,84,29.52,10.0,WSW,11.5,24.2,N/A,,Overcast,250,2014-01-19 21:53:00
5:14 PM,27.0,22.5,83,29.52,10.0,WSW,12.7,23.0,N/A,,Overcast,250,2014-01-19 22:14:00
5:33 PM,26.6,21.7,82,29.53,10.0,SW,13.8,-,N/A,,Overcast,230,2014-01-19 22:33:00
5:54 PM,26.2,21.6,82,29.54,10.0,WSW,10.4,-,N/A,,Overcast,240,2014-01-19 22:54:00
6:13 PM,26.2,21.2,81,29.53,10.0,SW,15.0,18.4,N/A,,Overcast,230,2014-01-19 23:13:00
6:34 PM,26.4,21.2,81,29.53,10.0,SW,10.4,17.3,N/A,,Overcast,230,2014-01-19 23:34:00
6:54 PM,26.2,21.2,81,29.54,10.0,SW,11.5,-,N/A,,Overcast,220,2014-01-19 23:54:00
7:13 PM,26.2,20.7,79,29.54,10.0,SW,11.5,-,N/A,,Overcast,230,2014-01-20 00:13:00
7:34 PM,26.2,20.7,79,29.55,10.0,SW,11.5,16.1,N/A,,Overcast,230,2014-01-20 00:34:00
7:53 PM,26.4,20.8,79,29.55,10.0,SW,12.7,-,N/A,,Overcast,230,2014-01-20 00:53:00
8:13 PM,26.6,21.2,80,29.55,10.0,WSW,10.4,17.3,N/A,,Overcast,240,2014-01-20 01:13:00
8:34 PM,26.6,21.4,81,29.55,10.0,SW,12.7,19.6,N/A,,Overcast,220,2014-01-20 01:34:00
8:53 PM,26.8,21.7,81,29.54,10.0,SW,11.5,-,N/A,,Overcast,230,2014-01-20 01:53:00
9:13 PM,27.1,22.1,81,29.53,10.0,SW,11.5,19.6,N/A,,Overcast,220,2014-01-20 02:13:00
9:34 PM,27.3,22.6,83,29.53,10.0,WSW,11.5,17.3,N/A,,Overcast,240,2014-01-20 02:34:00
9:53 PM,27.5,22.8,83,29.52,10.0,SW,9.2,-,N/A,,Overcast,230,2014-01-20 02:53:00
10:14 PM,28.0,23.5,83,29.52,10.0,SW,9.2,-,N/A,,Overcast,230,2014-01-20 03:14:00
10:34 PM,28.4,23.9,83,29.51,10.0,SW,10.4,-,N/A,,Overcast,230,2014-01-20 03:34:00
10:53 PM,28.4,24.3,84,29.50,10.0,WSW,10.4,-,N/A,,Overcast,240,2014-01-20 03:53:00
11:14 PM,29.1,24.8,84,29.50,10.0,WSW,10.4,-,N/A,,Overcast,240,2014-01-20 04:14:00
11:34 PM,29.1,25.2,85,29.49,10.0,WSW,6.9,-,N/A,,Overcast,240,2014-01-20 04:34:00
11:53 PM,29.3,25.5,86,29.49,10.0,WSW,8.1,-,N/A,,Overcast,250,2014-01-20 04:53:00